GEFSGL_con_cape1000_240.txt.gz
Probability
84 84 84 81 87 84 87 84 77 77 81 77 71 74 71 68 71 71 74 74 71 71 74 68 71 71 68 68 74 65 61 68 61 55 58 52 52 52 35 48 39 32 19
84 84 84 84 81 81 84 77 81 77 74 77 77 71 71 68 68 68 68 68 68 68 65 65 68 58 71 74 74 71 71 68 65 55 55 55 52 55 42 45 39 32 23
81 77 77 77 77 77 77 77 77 74 77 74 74 71 68 68 68 68 68 61 61 61 61 61 61 65 61 68 65 61 65 65 71 52 45 55 55 55 45 42 32 39 13
65 68 74 77 74 74 71 71 71 74 74 68 71 71 68 61 58 58 58 58 61 61 61 61 55 55 58 61 58 58 58 61 55 58 45 39 42 45 35 42 29 26 16
65 65 68 65 68 68 68 68 65 68 55 68 68 61 58 58 55 52 52 55 61 58 55 52 52 45 35 35 39 42 48 45 48 42 42 35 42 39 35 32 19 23 26
65 68 65 61 65 68 55 58 61 65 61 68 65 65 61 42 35 32 39 42 48 55 48 52 52 35 29 19 19 16 16 35 45 42 32 26 35 35 35 23 16 13 16
58 58 58 58 58 55 52 58 61 61 61 61 61 65 58 52 35 19 19 42 42 42 45 45 42 39 29 29 26 6 3 3 6 23 29 26 35 35 32 29 26 16 16
58 55 55 55 52 58 58 61 61 58 58 55 61 55 55 45 23 10 10 19 42 42 39 39 42 32 26 26 26 29 32 32 13 6 13 19 23 32 26 26 23 26 29
52 52 48 45 45 52 52 55 65 58 55 55 55 52 48 39 23 10 3 26 39 32 32 23 23 29 16 13 13 16 29 26 3 0 6 3 3 3 10 10 16 16 13
48 52 48 48 48 45 52 52 52 58 52 55 48 45 42 42 23 3 3 26 29 26 29 23 16 16 16 10 13 16 16 23 23 13 3 0 0 0 0 3 10 13 10
42 48 45 45 55 52 55 61 55 45 42 48 48 48 45 42 19 3 3 26 23 23 19 19 16 10 0 0 6 16 16 10 13 13 13 13 13 10 10 10 10 10 13
39 39 45 48 32 32 45 48 52 48 48 45 45 39 39 35 23 10 0 3 10 16 23 16 13 3 0 0 0 3 3 0 6 10 13 13 13 13 13 10 13 19 23
42 45 45 42 45 45 42 39 45 48 35 35 32 32 32 35 26 6 0 0 0 3 13 10 6 0 0 0 0 0 0 0 6 6 6 13 13 13 13 13 23 23 26
48 42 35 32 29 39 42 32 32 32 32 32 29 26 23 32 19 16 10 0 0 0 0 3 0 0 0 0 0 0 0 3 6 3 10 13 13 13 13 13 13 16 19
42 39 35 26 19 32 23 29 19 19 19 19 26 29 23 19 10 10 13 6 6 3 3 6 10 3 6 6 6 3 3 3 3 3 3 10 10 10 13 13 13 13 10
42 39 23 19 26 19 16 13 6 3 3 0 3 6 3 3 6 0 0 0 0 0 0 3 3 3 6 6 10 10 6 6 6 6 6 13 10 10 10 10 10 10 10
42 29 16 13 13 13 6 6 13 3 0 0 0 0 0 3 0 0 0 0 0 0 0 3 0 3 3 6 10 10 10 10 10 10 10 10 6 6 6 6 6 6 6
32 16 13 10 10 10 10 6 6 6 10 6 0 0 0 0 0 0 0 0 0 0 0 0 0 0 10 10 6 6 10 10 10 10 10 10 10 10 3 3 3 3 3
26 16 13 10 10 10 3 3 0 0 3 10 10 0 0 0 0 0 0 0 0 0 0 0 0 0 3 6 6 6 6 0 6 10 13 10 10 10 3 0 0 0 3
26 6 13 6 10 6 3 0 0 3 0 0 6 6 3 0 0 0 0 0 3 0 0 3 0 3 3 3 10 10 10 3 0 0 10 6 6 6 0 0 0 0 0
10 3 0 10 10 6 0 0 0 3 0 0 3 6 0 3 3 0 3 3 0 0 0 3 3 3 3 3 3 6 6 0 3 3 6 0 3 3 0 0 0 0 0
6 6 6 6 13 6 0 0 3 3 3 0 0 0 0 0 6 3 0 0 0 0 0 0 0 0 3 3 3 3 6 3 3 3 0 0 0 0 0 0 0 0 0
3 3 3 3 6 3 3 0 3 0 0 0 3 3 3 3 6 6 3 0 0 0 0 0 0 0 0 0 0 0 0 0 0 3 0 0 0 0 0 0 0 0 0
3 6 3 3 3 0 3 3 0 0 0 0 0 0 6 6 6 6 3 0 3 3 3 0 0 0 0 0 0 0 0 0 0 0 0 0 0 0 0 0 0 0 0
6 6 6 3 0 0 0 0 0 0 0 0 0 0 0 0 0 0 3 3 3 3 0 3 0 0 0 0 0 0 0 0 0 0 0 0 0 0 0 0 0 0 0
3 3 6 3 6 3 0 0 0 0 0 0 0 0 0 0 0 0 0 0 0 0 0 3 3 0 0 0 0 0 0 0 0 0 0 0 0 0 0 0 0 0 0

GEFSGL_con_cape1000_246.txt.gz
Probability
58 61 61 55 58 55 55 42 45 42 45 48 45 42 42 42 42 45 42 42 42 42 42 42 39 32 26 19 19 16 6 10 6 6 6 6 10 6 3 6 6 3 3
61 61 52 52 58 65 58 52 52 42 39 45 48 48 45 45 48 48 45 45 42 42 45 39 32 32 26 23 16 13 10 10 10 10 10 10 10 3 3 3 6 6 3
58 61 58 48 55 58 55 48 42 42 45 39 45 45 52 52 48 45 45 42 42 42 39 35 32 32 23 23 19 16 13 13 10 10 6 6 3 3 3 3 6 3 0
55 55 58 58 58 55 52 45 48 45 48 45 45 48 48 45 45 35 39 42 39 35 32 29 26 29 29 26 26 23 13 10 10 6 3 3 3 3 3 3 3 0 0
48 52 52 52 48 45 52 45 42 42 45 42 45 48 48 45 42 42 39 39 35 26 19 23 26 26 29 26 29 16 16 10 6 10 10 3 3 3 3 3 3 0 0
45 42 48 48 45 45 48 42 39 35 42 42 42 42 45 42 35 32 39 35 32 29 26 29 23 23 26 19 19 16 16 16 13 13 13 10 3 3 3 0 0 0 0
39 39 39 39 45 48 42 42 39 35 39 39 35 35 42 39 32 23 26 29 29 26 29 19 29 26 13 13 10 6 6 10 10 13 13 13 3 3 3 0 0 0 0
26 26 35 35 39 45 42 39 39 35 32 32 29 29 32 32 26 16 16 16 26 26 23 19 16 10 10 10 10 10 6 3 3 3 6 3 3 3 0 0 0 0 0
26 29 29 29 35 42 45 39 32 29 29 26 29 26 29 29 16 10 10 16 16 19 19 13 13 10 6 10 10 10 10 3 0 3 3 3 3 0 0 0 0 0 0
16 19 23 29 29 29 35 26 23 23 29 23 29 23 23 23 16 10 10 19 16 10 6 10 13 13 6 6 6 6 6 3 3 3 0 0 0 0 0 0 0 0 0
23 19 19 23 26 23 23 23 19 19 19 19 19 19 19 16 16 6 3 16 10 10 6 6 10 3 3 3 0 3 3 0 0 0 0 0 0 0 0 0 0 0 0
19 19 19 16 19 19 23 23 23 16 16 16 16 19 13 6 10 10 0 3 6 10 6 3 3 3 0 0 0 3 0 0 0 0 0 0 0 0 0 0 0 0 0
19 13 13 13 13 16 19 23 23 19 19 19 19 16 6 3 3 0 0 0 0 3 3 3 3 3 0 0 0 0 0 0 0 0 0 0 0 0 0 0 0 0 0
16 13 10 10 6 6 6 10 10 19 19 19 13 10 6 6 6 3 3 3 0 0 3 3 0 0 0 0 0 0 0 0 0 0 0 0 0 0 0 0 3 3 3
13 16 13 3 3 3 3 3 3 6 10 6 3 3 6 6 6 0 3 6 3 3 0 0 0 0 0 0 0 0 0 0 0 0 0 0 0 0 0 0 0 3 3
10 13 10 3 3 3 0 0 0 0 0 0 0 0 0 3 3 0 0 0 0 0 0 0 0 0 0 0 0 0 0 0 0 0 0 0 0 0 0 0 0 0 0
6 6 10 3 0 0 0 0 0 0 0 0 0 0 0 0 0 0 0 0 0 0 0 0 0 0 0 0 0 0 0 0 0 0 0 0 0 0 0 0 0 0 0
6 3 3 3 3 0 0 0 0 0 0 0 0 0 0 0 0 0 0 0 0 0 0 3 0 0 0 0 0 0 0 0 0 0 0 0 0 0 0 0 0 0 0
0 3 3 6 3 3 0 0 0 0 0 0 0 0 0 0 0 0 0 0 0 0 0 0 3 0 0 0 0 0 0 0 0 0 0 0 0 0 0 0 0 0 0
0 3 0 3 3 3 3 3 3 0 0 0 0 0 0 0 0 0 0 0 0 0 0 0 3 3 0 0 0 0 0 0 0 0 0 0 0 0 0 0 0 0 0
0 3 0 0 3 3 3 3 3 0 0 0 0 0 0 0 0 0 0 0 0 0 0 0 0 3 0 0 0 0 0 0 0 0 0 0 0 0 0 0 0 0 0
0 0 0 3 3 3 3 3 0 0 0 0 0 0 0 0 0 0 0 0 0 0 0 0 0 0 0 0 0 0 0 0 0 0 0 0 0 0 0 0 0 0 0
0 3 3 3 3 3 0 0 0 0 0 0 0 0 0 0 0 0 0 0 0 0 0 0 0 0 0 0 0 0 0 0 0 0 0 0 0 0 0 0 0 0 0
0 3 0 0 0 0 0 0 0 0 0 0 0 0 0 0 0 0 0 0 0 0 0 0 0 0 0 0 0 0 0 0 0 0 0 0 0 0 0 0 0 0 0
0 3 0 0 0 0 0 0 0 0 0 0 0 0 0 0 0 0 0 0 0 0 0 0 0 0 0 0 0 0 0 0 0 0 0 0 0 0 0 0 0 0 0
0 0 0 0 0 0 0 0 0 0 0 0 0 0 0 0 0 0 0 0 0 0 0 0 0 0 0 0 0 0 0 0 0 0 0 0 0 0 0 0 0 0 0

GEFSGL_con_cape1000_252.txt.gz
Probability
29 26 26 26 29 29 29 32 32 29 29 29 26 26 23 29 35 35 35 35 35 32 32 32 32 35 29 19 16 13 10 6 19 19 10 10 16 10 6 3 6 6 6
42 39 29 32 32 39 39 35 35 26 23 23 23 19 26 26 32 35 39 39 35 35 35 35 35 29 23 23 23 26 19 16 23 23 16 16 6 6 6 6 3 3 6
39 45 39 35 39 39 42 42 29 26 26 26 23 26 29 35 32 35 32 32 35 35 35 35 35 32 23 19 23 19 13 13 16 19 13 10 6 3 6 3 3 6 0
42 42 42 32 39 35 39 32 26 29 29 32 29 32 32 32 32 32 32 35 32 29 32 29 26 19 19 23 23 19 16 16 16 10 13 6 3 3 3 6 3 3 0
39 45 45 39 39 35 32 19 23 23 26 29 23 26 26 32 39 35 32 29 35 29 29 26 26 19 16 16 16 23 16 13 13 13 10 10 6 6 6 6 3 0 0
42 42 32 35 35 35 26 19 19 26 23 23 23 26 26 26 23 19 19 32 29 29 29 26 23 19 13 10 10 6 6 10 13 10 6 10 13 10 6 3 3 0 3
26 29 32 29 32 32 32 26 26 32 29 23 23 23 23 19 13 10 13 16 26 26 26 19 23 19 10 16 6 0 0 0 0 10 10 10 10 10 10 6 3 6 3
23 26 26 19 23 26 26 29 39 32 29 26 26 23 23 19 10 6 6 13 19 23 23 19 16 23 10 6 6 6 6 3 3 0 6 10 10 10 6 6 6 0 0
13 19 19 19 16 19 23 23 32 35 23 23 26 23 23 19 10 6 3 10 10 19 19 16 19 19 6 3 6 10 10 10 3 0 0 3 0 0 0 3 0 0 0
16 16 16 16 16 16 19 23 23 26 26 19 23 23 23 23 13 3 3 10 13 16 16 13 6 10 3 3 3 6 10 6 6 0 0 0 0 0 0 0 0 0 0
6 13 10 13 13 16 13 6 16 23 19 19 19 19 19 16 13 3 3 10 16 16 16 10 6 0 0 0 0 3 3 3 3 3 0 0 0 0 0 0 0 0 0
10 13 13 13 16 16 10 10 13 19 19 19 23 19 16 10 6 0 3 6 6 10 10 10 6 0 0 0 0 0 0 0 3 0 0 0 0 0 0 0 0 0 0
13 13 13 10 10 13 13 13 10 10 16 19 23 19 13 6 10 0 0 0 0 6 6 3 0 0 0 0 0 0 0 0 3 3 3 0 0 0 0 0 0 0 0
13 10 10 10 10 10 13 16 10 13 16 16 16 16 10 6 6 10 0 0 0 0 3 0 0 0 0 0 0 0 0 0 3 3 3 0 0 0 0 0 0 0 0
10 10 10 10 10 10 6 6 10 10 6 13 13 10 6 6 3 3 0 0 3 3 3 0 0 0 0 0 0 0 0 0 3 3 3 0 0 0 0 0 0 0 3
10 10 10 6 6 3 3 0 0 3 0 0 6 6 6 3 3 3 0 0 0 0 0 0 0 0 0 0 0 0 3 3 3 3 3 3 0 0 0 0 0 0 0
10 6 6 6 3 3 3 3 0 0 0 0 0 0 3 0 0 0 0 0 0 0 0 0 0 0 0 0 0 0 0 3 3 3 3 3 0 0 0 0 0 0 0
6 6 3 3 3 3 3 3 3 0 0 0 0 0 0 0 0 0 0 0 0 0 0 0 0 0 0 0 0 0 0 0 3 3 3 3 3 0 0 0 0 0 0
3 0 0 3 0 0 0 0 0 3 3 0 0 0 0 0 0 0 0 0 0 0 0 0 0 0 0 0 0 0 0 0 0 0 0 3 0 0 0 0 0 0 0
0 0 0 0 0 0 0 0 0 0 0 0 0 0 0 0 0 0 0 0 0 0 0 0 0 0 0 0 0 0 0 0 0 0 0 0 0 0 0 0 0 0 0
0 0 0 0 0 0 0 0 0 0 0 0 0 0 0 0 0 0 0 0 0 0 0 0 0 0 0 0 0 0 0 0 0 0 0 0 0 0 0 0 0 0 0
0 0 0 0 0 0 0 0 0 0 0 0 0 0 0 0 0 0 0 0 0 0 0 0 0 0 0 0 0 0 0 0 0 0 0 0 0 0 0 0 0 0 0
0 0 0 0 0 0 0 0 0 0 0 0 0 0 0 0 0 0 0 0 0 0 0 0 0 0 0 0 0 0 0 0 0 0 0 0 0 0 0 0 0 0 0
0 0 0 0 0 0 0 0 0 0 0 3 3 3 3 0 0 0 0 0 0 0 0 0 0 0 0 0 0 0 0 0 0 0 0 0 0 0 0 0 0 0 0
0 0 0 0 0 0 0 0 0 0 0 0 3 3 3 0 0 0 0 0 0 0 0 0 0 0 0 0 0 0 0 0 0 0 0 0 0 0 0 0 0 0 0
0 0 0 0 0 0 0 3 0 0 0 0 0 0 0 0 0 0 0 0 0 0 0 0 0 0 0 0 0 0 0 0 0 0 0 0 0 0 0 0 0 0 0

GEFSGL_con_cape1000_258.txt.gz
Probability
65 68 71 68 68 71 74 74 74 77 74 71 71 68 65 65 74 71 52 55 61 61 65 61 65 68 58 55 52 48 55 55 55 48 48 45 55 48 42 35 32 39 29
61 61 65 65 65 65 68 68 68 71 71 71 71 71 65 65 74 61 58 55 58 58 58 58 58 45 61 52 45 52 52 55 48 55 42 35 45 45 39 39 23 16 23
58 58 61 65 65 68 68 68 68 68 68 68 68 68 71 65 68 61 58 58 55 58 58 55 55 52 55 55 45 35 35 35 48 39 35 42 32 26 26 23 19 29 16
58 58 58 61 65 68 68 71 71 71 68 71 71 68 65 61 58 52 52 55 55 55 58 55 55 52 55 52 45 45 42 45 45 39 32 26 35 23 19 19 19 19 16
58 61 61 65 65 65 71 71 71 71 68 68 65 65 61 58 48 45 48 42 52 52 52 52 48 45 42 42 35 42 42 39 35 39 26 23 29 26 16 13 13 16 19
52 55 58 61 65 68 68 71 71 68 65 65 61 61 61 45 32 32 39 42 45 45 39 45 45 42 23 16 16 16 19 35 32 32 35 26 32 26 23 16 16 13 16
45 45 52 48 55 61 55 61 65 61 61 61 61 61 58 55 23 16 19 39 42 42 42 45 39 32 32 35 10 3 6 6 10 32 26 29 26 16 19 16 19 13 23
45 45 48 52 55 52 52 58 61 58 58 58 55 55 55 48 13 13 10 29 39 42 35 39 42 35 29 29 29 26 29 23 13 16 19 23 23 23 19 19 19 19 19
39 42 45 48 45 48 42 42 52 52 55 52 48 52 52 45 13 10 0 35 39 32 32 35 39 32 26 19 26 29 29 23 16 3 10 10 3 3 6 19 19 19 13
35 39 39 32 45 45 39 42 39 42 42 35 35 39 42 45 26 10 0 26 32 32 32 29 19 19 19 3 23 26 26 23 23 16 6 0 3 3 0 6 13 16 13
35 26 29 32 26 32 35 39 39 35 32 35 35 35 42 35 23 6 0 29 26 23 23 26 19 10 3 3 10 23 23 19 19 19 23 19 16 16 16 10 13 13 13
29 26 26 26 26 23 29 35 35 35 32 32 32 32 32 26 19 10 3 3 13 26 23 23 19 3 0 0 3 6 3 3 16 16 13 13 13 13 13 13 16 13 16
23 26 26 26 26 26 29 26 32 32 32 32 29 26 19 26 23 6 0 0 3 13 26 16 3 0 0 0 0 0 0 10 6 10 10 10 10 13 13 13 13 13 13
23 23 26 26 26 23 23 23 23 26 29 29 29 23 19 23 23 19 10 3 3 3 6 3 0 0 0 0 0 0 3 6 6 6 6 10 10 10 10 10 10 10 10
23 23 26 26 23 29 23 19 26 23 19 26 26 13 16 16 16 16 16 16 10 13 6 3 3 3 10 13 10 6 6 0 0 3 6 6 6 10 10 6 6 10 10
23 26 29 19 19 26 23 19 6 6 3 6 6 6 13 6 3 6 10 6 0 0 3 6 6 10 10 6 6 10 6 6 6 3 3 10 10 10 10 10 6 6 10
23 23 23 19 19 23 23 23 13 3 0 0 0 0 0 0 0 0 0 0 0 0 6 13 10 10 3 3 0 3 0 0 0 3 3 3 10 10 10 6 6 6 3
16 13 13 23 23 23 23 23 16 13 13 3 0 0 0 0 0 0 0 0 0 0 6 10 10 3 3 3 0 0 0 0 0 0 3 3 3 6 6 3 3 6 6
16 13 16 16 23 26 16 13 10 10 13 6 3 0 0 0 0 0 0 0 3 3 6 6 6 3 3 3 3 0 0 0 0 0 0 0 0 3 3 3 3 0 0
19 13 13 13 19 16 13 13 10 6 6 6 3 0 0 0 0 0 0 0 3 3 3 6 6 3 3 3 3 0 0 0 0 0 0 0 0 0 0 0 0 0 0
13 13 3 13 19 16 16 6 6 6 6 3 3 3 0 0 0 0 0 0 3 6 3 6 3 3 3 3 3 3 0 0 0 0 0 0 0 0 0 0 0 0 0
13 16 13 19 19 16 13 10 10 6 6 3 3 0 0 0 0 0 0 0 3 3 3 3 3 3 3 3 3 0 0 0 0 0 0 0 0 0 0 0 0 0 0
13 16 13 13 6 3 6 6 6 0 0 0 0 0 0 0 0 0 0 0 3 0 0 3 3 3 3 3 0 0 0 0 0 0 0 0 0 0 0 0 0 0 0
13 6 13 6 6 10 3 3 0 3 3 0 3 0 0 0 0 0 0 0 0 0 0 0 0 3 3 3 0 0 0 0 0 0 0 0 0 0 0 0 0 0 0
3 3 3 6 10 3 3 6 0 0 0 0 0 3 0 0 0 0 0 0 0 0 0 0 0 0 0 3 3 0 0 0 0 0 0 0 0 0 0 0 0 0 0
3 3 3 10 6 6 6 0 0 0 0 0 0 0 0 0 0 0 0 0 0 0 0 0 3 3 3 3 3 3 0 0 0 0 0 0 0 0 0 0 0 0 0